Time,TemperatureF,DewpointF,PressureIn,WindDirection,WindDirectionDegrees,WindSpeedMPH,WindSpeedGustMPH,Humidity,HourlyPrecipIn,Conditions,Clouds,dailyrainin,SoftwareType,DateUTC
2013-09-06 00:09:00,52.2,47.0,29.97,North,6,0.0,1.0,83,0.00,,,0.00,weatherlink.com 1.10,2013-09-06 06:09:00,
2013-09-06 00:24:00,52.5,47.0,29.97,North,353,0.0,1.0,81,0.00,,,0.00,weatherlink.com 1.10,2013-09-06 06:24:00,
2013-09-06 00:39:00,51.9,47.0,29.97,North,353,0.0,1.0,83,0.00,,,0.00,weatherlink.com 1.10,2013-09-06 06:39:00,
2013-09-06 00:54:00,51.7,47.0,29.97,North,353,0.0,1.0,84,0.00,,,0.00,weatherlink.com 1.10,2013-09-06 06:54:00,
2013-09-06 01:09:00,51.3,47.0,29.97,North,353,0.0,1.0,85,0.00,,,0.00,weatherlink.com 1.10,2013-09-06 07:09:00,
2013-09-06 01:24:00,50.8,46.0,29.97,North,353,0.0,1.0,84,0.00,,,0.00,weatherlink.com 1.10,2013-09-06 07:24:00,
2013-09-06 01:39:00,50.1,46.0,29.97,North,353,0.0,1.0,86,0.00,,,0.00,weatherlink.com 1.10,2013-09-06 07:39:00,
2013-09-06 01:54:00,49.8,46.0,29.97,North,353,0.0,0.0,85,0.00,,,0.00,weatherlink.com 1.10,2013-09-06 07:54:00,
2013-09-06 02:09:00,49.5,45.0,29.96,North,353,0.0,1.0,85,0.00,,,0.00,weatherlink.com 1.10,2013-09-06 08:09:00,
2013-09-06 02:24:00,49.2,44.0,29.96,North,353,0.0,1.0,83,0.00,,,0.00,weatherlink.com 1.10,2013-09-06 08:24:00,
2013-09-06 02:39:00,48.8,45.0,29.96,North,354,0.0,1.0,85,0.00,,,0.00,weatherlink.com 1.10,2013-09-06 08:39:00,
2013-09-06 02:54:00,49.1,45.0,29.96,North,352,0.0,1.0,85,0.00,,,0.00,weatherlink.com 1.10,2013-09-06 08:54:00,
2013-09-06 03:09:00,50.3,45.0,29.96,North,354,0.0,2.0,83,0.00,,,0.00,weatherlink.com 1.10,2013-09-06 09:09:00,
2013-09-06 03:24:00,52.1,46.0,29.95,WNW,285,1.0,5.0,80,0.00,,,0.00,weatherlink.com 1.10,2013-09-06 09:24:00,
2013-09-06 03:39:00,53.6,46.0,29.94,NNE,33,3.0,3.0,75,0.00,,,0.00,weatherlink.com 1.10,2013-09-06 09:39:00,
2013-09-06 03:54:00,56.2,47.0,29.94,NNW,335,1.0,3.0,71,0.00,,,0.00,weatherlink.com 1.10,2013-09-06 09:54:00,
2013-09-06 04:10:00,58.8,42.0,29.94,WNW,303,0.0,4.0,54,0.00,,,0.00,weatherlink.com 1.10,2013-09-06 10:10:00,
2013-09-06 04:25:00,65.9,40.0,29.94,North,10,0.0,5.0,39,0.00,,,0.00,weatherlink.com 1.10,2013-09-06 10:25:00,
2013-09-06 04:40:00,67.2,40.0,29.94,SE,146,1.0,4.0,37,0.00,,,0.00,weatherlink.com 1.10,2013-09-06 10:40:00,
2013-09-06 04:55:00,63.8,46.0,29.94,NNW,343,1.0,3.0,53,0.00,,,0.00,weatherlink.com 1.10,2013-09-06 10:55:00,
2013-09-06 05:10:00,59.5,46.0,29.94,NNW,330,0.0,1.0,61,0.00,,,0.00,weatherlink.com 1.10,2013-09-06 11:10:00,
2013-09-06 05:25:00,57.3,47.0,29.93,NNW,329,0.0,1.0,68,0.00,,,0.00,weatherlink.com 1.10,2013-09-06 11:25:00,
2013-09-06 05:40:00,55.7,46.0,29.93,NNW,329,0.0,1.0,71,0.00,,,0.00,weatherlink.com 1.10,2013-09-06 11:40:00,
2013-09-06 05:55:00,54.8,46.0,29.93,NNW,329,0.0,1.0,72,0.00,,,0.00,weatherlink.com 1.10,2013-09-06 11:55:00,
2013-09-06 06:10:00,53.8,46.0,29.93,NNW,333,0.0,1.0,74,0.00,,,0.00,weatherlink.com 1.10,2013-09-06 12:10:00,
2013-09-06 06:25:00,52.8,45.0,29.93,NW,310,0.0,1.0,76,0.00,,,0.00,weatherlink.com 1.10,2013-09-06 12:25:00,
2013-09-06 06:40:00,52.6,45.0,29.93,WNW,296,0.0,1.0,76,0.00,,,0.00,weatherlink.com 1.10,2013-09-06 12:40:00,
2013-09-06 06:55:00,51.9,46.0,29.94,WNW,296,0.0,1.0,79,0.00,,,0.00,weatherlink.com 1.10,2013-09-06 12:55:00,
2013-09-06 07:10:00,51.5,46.0,29.94,NW,322,0.0,0.0,80,0.00,,,0.00,weatherlink.com 1.10,2013-09-06 13:10:00,
2013-09-06 07:25:00,51.5,46.0,29.94,NW,308,0.0,0.0,81,0.00,,,0.00,weatherlink.com 1.10,2013-09-06 13:25:00,
2013-09-06 07:40:00,51.6,47.0,29.94,NW,308,0.0,0.0,83,0.00,,,0.00,weatherlink.com 1.10,2013-09-06 13:40:00,
2013-09-06 07:55:00,53.7,48.0,29.95,NNW,331,0.0,0.0,80,0.00,,,0.00,weatherlink.com 1.10,2013-09-06 13:55:00,
2013-09-06 08:10:00,56.3,50.0,29.94,NNW,334,0.0,0.0,79,0.00,,,0.00,weatherlink.com 1.10,2013-09-06 14:10:00,
2013-09-06 08:25:00,59.2,51.0,29.95,NW,326,0.0,0.0,75,0.00,,,0.00,weatherlink.com 1.10,2013-09-06 14:25:00,
2013-09-06 08:40:00,59.7,52.0,29.95,NW,319,0.0,0.0,76,0.00,,,0.00,weatherlink.com 1.10,2013-09-06 14:40:00,
2013-09-06 08:55:00,60.0,52.0,29.95,NW,319,0.0,0.0,76,0.00,,,0.00,weatherlink.com 1.10,2013-09-06 14:55:00,
2013-09-06 09:10:00,61.6,53.0,29.95,NW,319,0.0,0.0,74,0.00,,,0.00,weatherlink.com 1.10,2013-09-06 15:10:00,
2013-09-06 09:25:00,65.3,52.0,29.95,NNW,347,0.0,0.0,62,0.00,,,0.00,weatherlink.com 1.10,2013-09-06 15:25:00,
2013-09-06 09:40:00,66.0,53.0,29.95,NNW,347,0.0,0.0,64,0.00,,,0.00,weatherlink.com 1.10,2013-09-06 15:40:00,
2013-09-06 09:55:00,67.9,51.0,29.94,NNW,347,0.0,0.0,56,0.00,,,0.00,weatherlink.com 1.10,2013-09-06 15:55:00,
2013-09-06 10:10:00,72.3,47.0,29.94,NW,307,0.0,2.0,40,0.00,,,0.00,weatherlink.com 1.10,2013-09-06 16:10:00,
2013-09-06 10:25:00,75.3,47.0,29.94,SW,229,0.0,2.0,37,0.00,,,0.00,weatherlink.com 1.10,2013-09-06 16:25:00,
2013-09-06 10:40:00,76.7,45.0,29.94,SSW,210,0.0,3.0,33,0.00,,,0.00,weatherlink.com 1.10,2013-09-06 16:40:00,
2013-09-06 10:55:00,78.5,45.0,29.93,NW,307,1.0,4.0,31,0.00,,,0.00,weatherlink.com 1.10,2013-09-06 16:55:00,
2013-09-06 11:10:00,80.0,48.0,29.93,SSE,154,0.0,3.0,33,0.00,,,0.00,weatherlink.com 1.10,2013-09-06 17:10:00,
2013-09-06 11:25:00,76.8,45.0,29.92,ESE,112,0.0,3.0,32,0.00,,,0.00,weatherlink.com 1.10,2013-09-06 17:25:00,
2013-09-06 11:40:00,72.9,46.0,29.92,SE,135,0.0,7.0,39,0.00,,,0.00,weatherlink.com 1.10,2013-09-06 17:40:00,
2013-09-06 11:55:00,70.7,46.0,29.92,South,176,0.0,3.0,41,0.00,,,0.00,weatherlink.com 1.10,2013-09-06 17:55:00,
2013-09-06 12:10:00,68.0,45.0,29.92,South,169,3.0,6.0,43,0.00,,,0.00,weatherlink.com 1.10,2013-09-06 18:10:00,
2013-09-06 12:25:00,66.3,47.0,29.92,North,349,0.0,1.0,50,0.00,,,0.00,weatherlink.com 1.10,2013-09-06 18:25:00,
2013-09-06 12:40:00,63.5,53.0,29.93,ESE,113,0.0,2.0,68,0.01,,,0.01,weatherlink.com 1.10,2013-09-06 18:40:00,
2013-09-06 12:55:00,63.2,50.0,29.93,West,269,2.0,3.0,62,0.01,,,0.01,weatherlink.com 1.10,2013-09-06 18:55:00,
2013-09-06 13:10:00,62.2,52.0,29.93,NW,304,1.0,3.0,69,0.02,,,0.02,weatherlink.com 1.10,2013-09-06 19:10:00,
2013-09-06 13:25:00,62.5,48.0,29.91,WNW,302,3.0,8.0,59,0.02,,,0.02,weatherlink.com 1.10,2013-09-06 19:25:00,
2013-09-06 13:40:00,62.5,50.0,29.90,NNW,335,1.0,5.0,64,0.01,,,0.02,weatherlink.com 1.10,2013-09-06 19:40:00,
2013-09-06 13:55:00,65.2,49.0,29.90,WNW,288,1.0,2.0,57,0.00,,,0.02,weatherlink.com 1.10,2013-09-06 19:55:00,
2013-09-06 14:10:00,67.4,50.0,29.90,East,93,0.0,1.0,53,0.00,,,0.02,weatherlink.com 1.10,2013-09-06 20:10:00,
2013-09-06 14:25:00,67.1,52.0,29.90,East,94,0.0,1.0,58,0.00,,,0.02,weatherlink.com 1.10,2013-09-06 20:25:00,
2013-09-06 14:41:00,66.6,55.0,29.89,East,94,0.0,0.0,66,0.00,,,0.02,weatherlink.com 1.10,2013-09-06 20:41:00,
2013-09-06 14:56:00,65.8,54.0,29.89,East,94,0.0,0.0,67,0.00,,,0.02,weatherlink.com 1.10,2013-09-06 20:56:00,
2013-09-06 15:11:00,64.5,56.0,29.89,East,94,0.0,0.0,73,0.00,,,0.02,weatherlink.com 1.10,2013-09-06 21:11:00,
2013-09-06 15:26:00,64.1,47.0,29.90,SSW,195,3.0,6.0,55,0.00,,,0.02,weatherlink.com 1.10,2013-09-06 21:26:00,
2013-09-06 15:41:00,62.9,48.0,29.90,ESE,120,0.0,3.0,59,0.00,,,0.02,weatherlink.com 1.10,2013-09-06 21:41:00,
2013-09-06 15:56:00,62.5,51.0,29.91,SSE,153,1.0,7.0,67,0.00,,,0.02,weatherlink.com 1.10,2013-09-06 21:56:00,
2013-09-06 16:11:00,63.5,44.0,29.91,SSE,161,4.0,10.0,50,0.00,,,0.02,weatherlink.com 1.10,2013-09-06 22:11:00,
2013-09-06 16:26:00,64.3,43.0,29.93,SSE,151,5.0,14.0,47,0.00,,,0.02,weatherlink.com 1.10,2013-09-06 22:26:00,
2013-09-06 16:41:00,63.3,43.0,29.94,South,169,4.0,10.0,48,0.00,,,0.02,weatherlink.com 1.10,2013-09-06 22:41:00,
2013-09-06 16:56:00,62.2,45.0,29.93,SE,131,2.0,9.0,53,0.01,,,0.03,weatherlink.com 1.10,2013-09-06 22:56:00,
2013-09-06 17:11:00,62.1,45.0,29.90,WNW,300,2.0,6.0,53,0.02,,,0.04,weatherlink.com 1.10,2013-09-06 23:11:00,
2013-09-06 17:26:00,59.1,50.0,29.90,East,86,0.0,2.0,71,0.02,,,0.04,weatherlink.com 1.10,2013-09-06 23:26:00,
2013-09-06 17:41:00,59.2,48.0,29.89,East,92,0.0,2.0,66,0.02,,,0.04,weatherlink.com 1.10,2013-09-06 23:41:00,
2013-09-06 17:56:00,59.9,49.0,29.89,WNW,287,0.0,2.0,67,0.01,,,0.04,weatherlink.com 1.10,2013-09-06 23:56:00,
2013-09-06 18:11:00,60.1,50.0,29.88,NNE,18,0.0,1.0,70,0.00,,,0.04,weatherlink.com 1.10,2013-09-07 00:11:00,
2013-09-06 18:26:00,60.0,51.0,29.88,NNW,338,0.0,2.0,72,0.00,,,0.04,weatherlink.com 1.10,2013-09-07 00:26:00,
2013-09-06 18:41:00,58.9,52.0,29.88,NNW,338,0.0,0.0,78,0.00,,,0.04,weatherlink.com 1.10,2013-09-07 00:41:00,
2013-09-06 18:56:00,57.5,52.0,29.88,NNW,338,0.0,1.0,82,0.00,,,0.04,weatherlink.com 1.10,2013-09-07 00:56:00,
2013-09-06 19:11:00,56.0,51.0,29.88,NNW,338,0.0,1.0,84,0.00,,,0.04,weatherlink.com 1.10,2013-09-07 01:11:00,
2013-09-06 19:26:00,54.8,50.0,29.89,NNW,338,0.0,1.0,83,0.00,,,0.04,weatherlink.com 1.10,2013-09-07 01:26:00,
2013-09-06 19:41:00,54.1,50.0,29.89,NNW,338,0.0,0.0,85,0.00,,,0.04,weatherlink.com 1.10,2013-09-07 01:41:00,
2013-09-06 19:56:00,53.9,50.0,29.90,NNW,338,0.0,1.0,85,0.00,,,0.04,weatherlink.com 1.10,2013-09-07 01:56:00,
2013-09-06 20:11:00,53.5,50.0,29.92,South,170,0.0,2.0,86,0.00,,,0.04,weatherlink.com 1.10,2013-09-07 02:11:00,
2013-09-06 20:26:00,56.0,49.0,29.93,SSE,166,1.0,5.0,78,0.00,,,0.04,weatherlink.com 1.10,2013-09-07 02:26:00,
2013-09-06 20:41:00,60.1,48.0,29.96,SE,128,2.0,12.0,64,0.00,,,0.04,weatherlink.com 1.10,2013-09-07 02:41:00,
2013-09-06 20:56:00,60.1,46.0,29.96,WSW,245,1.0,10.0,60,0.01,,,0.05,weatherlink.com 1.10,2013-09-07 02:56:00,
2013-09-06 21:11:00,60.7,46.0,29.94,West,261,1.0,11.0,59,0.01,,,0.05,weatherlink.com 1.10,2013-09-07 03:11:00,
2013-09-06 21:26:00,61.9,44.0,29.93,ENE,75,0.0,4.0,52,0.01,,,0.05,weatherlink.com 1.10,2013-09-07 03:26:00,
2013-09-06 21:41:00,60.5,46.0,29.94,ESE,119,2.0,8.0,60,0.01,,,0.05,weatherlink.com 1.10,2013-09-07 03:41:00,
2013-09-06 21:56:00,60.8,46.0,29.95,SSE,150,1.0,6.0,58,0.00,,,0.05,weatherlink.com 1.10,2013-09-07 03:56:00,
2013-09-06 22:11:00,61.6,45.0,29.96,ENE,59,2.0,8.0,55,0.00,,,0.05,weatherlink.com 1.10,2013-09-07 04:11:00,
2013-09-06 22:26:00,61.4,46.0,29.95,ESE,103,2.0,8.0,57,0.00,,,0.05,weatherlink.com 1.10,2013-09-07 04:26:00,
2013-09-06 22:41:00,60.4,45.0,29.96,SE,146,0.0,3.0,57,0.00,,,0.05,weatherlink.com 1.10,2013-09-07 04:41:00,
2013-09-06 22:56:00,61.2,45.0,29.95,NW,311,2.0,5.0,55,0.00,,,0.05,weatherlink.com 1.10,2013-09-07 04:56:00,
2013-09-06 23:11:00,58.8,47.0,29.95,WNW,297,0.0,1.0,64,0.00,,,0.05,weatherlink.com 1.10,2013-09-07 05:11:00,
2013-09-06 23:26:00,56.9,47.0,29.95,WNW,297,0.0,1.0,70,0.00,,,0.05,weatherlink.com 1.10,2013-09-07 05:26:00,
2013-09-06 23:41:00,55.8,47.0,29.95,West,271,0.0,1.0,72,0.00,,,0.05,weatherlink.com 1.10,2013-09-07 05:41:00,
2013-09-06 23:56:00,54.4,47.0,29.95,West,271,0.0,1.0,75,0.00,,,0.05,weatherlink.com 1.10,2013-09-07 05:56:00,